Location: Champs
(48.8539°N, 2.6040°E)
Time: 18:58:04
(UTC+00:00)

ATLAS CENTAUR R/B - Pass Details

Date: 06 June 2022
Orbit: 443 x 688 km, 64.6° (Epoch: 07 June)

Event Time Altitude Azimuth Distance (km) Brightness Sun altitude
Rises 20:51:16 0° 313° (NW) 3,050 7.5 -8.3°
Reaches altitude 10° 20:53:54 10° 302° (WNW) 2,112 5.7 -8.5°
Maximum altitude 20:57:58 28° 245° (WSW) 1,233 3.3 -9.0°
Drops below altitude 10° 21:01:51 10° 187° (S) 2,005 3.8 -9.4°
Enters shadow 21:02:51 - 181° (S) 2,341 4.1 -9.5°
